This is the latest recevied weather packets stored in our database for station/object KD0OXW. If no packets are shown the sender has not sent any weather packets the latest 10 day(s).
| Time | Temp. | Humidity | Pressure | Rain* | Wind** | Luminosity | Snow |
|---|---|---|---|---|---|---|---|
| 1777993389 | 3.33° C | 53% | 1008.6 hPa | 0 mm | - | - | - |
| 1777993089 | 3.33° C | 55% | 1008.7 hPa | 0 mm | - | - | - |
| 1777992789 | 3.33° C | 55% | 1008.6 hPa | 0 mm | - | - | - |
| 1777992489 | 3.33° C | 58% | 1008.5 hPa | 0 mm | - | - | - |
| 1777992189 | 3.33° C | 57% | 1008.3 hPa | 0 mm | - | - | - |
| 1777991889 | 3.33° C | 59% | 1008.2 hPa | 0 mm | - | - | - |
| 1777991589 | 3.33° C | 57% | 1008.2 hPa | 0 mm | - | - | - |
| 1777991289 | 3.33° C | 57% | 1008.3 hPa | 0 mm | - | - | - |
| 1777990989 | 3.33° C | 56% | 1008.2 hPa | 0 mm | - | - | - |
| 1777990689 | 3.33° C | 56% | 1008.2 hPa | 0 mm | - | - | - |
| 1777990389 | 3.33° C | 58% | 1008.2 hPa | 0 mm | - | - | - |
| 1777989789 | 2.78° C | 60% | 1008.1 hPa | 0 mm | - | - | - |
| 1777989489 | 2.78° C | 59% | 1008 hPa | 0 mm | - | - | - |
| 1777989189 | 2.78° C | 61% | 1008.1 hPa | 0 mm | - | - | - |
| 1777988889 | 2.78° C | 60% | 1008 hPa | 0 mm | - | - | - |
| 1777988589 | 2.78° C | 65% | 1008.1 hPa | 0 mm | - | - | - |
| 1777988289 | 2.22° C | 65% | 1008 hPa | 0 mm | - | - | - |
| 1777987989 | 2.22° C | 65% | 1007.8 hPa | 0 mm | - | - | - |
| 1777987689 | 2.22° C | 66% | 1007.8 hPa | 0 mm | - | - | - |
| 1777987389 | 1.67° C | 67% | 1007.8 hPa | 0 mm | - | - | - |
| 1777987089 | 1.67° C | 66% | 1007.7 hPa | 0 mm | - | - | - |
| 1777986789 | 2.22° C | 67% | 1007.6 hPa | 0 mm | - | - | - |
| 1777986489 | 1.67° C | 68% | 1007.6 hPa | 0 mm | - | - | - |
| 1777986189 | 1.67° C | 68% | 1007.5 hPa | 0 mm | - | - | - |
| 1777985889 | 1.67° C | 68% | 1007.5 hPa | 0 mm | - | - | - |
* Rain latest hour (hover to see other rain measurements)
** Current wind speed in m/s (hover to see current wind gust speed)